TimeEST,TemperatureF,Dew PointF,Humidity,Sea Level PressureIn,VisibilityMPH,Wind Direction,Wind SpeedMPH,Gust SpeedMPH,PrecipitationIn,Events,Conditions,WindDirDegrees,DateUTC
12:15 AM,34.7,23.7,64,29.86,10.0,SSW,11.5,-,N/A,,Overcast,200,2014-02-22 05:15:00
12:35 AM,34.9,23.7,64,29.86,5.0,SSW,8.1,-,N/A,Snow,Light Snow,210,2014-02-22 05:35:00
12:55 AM,34.2,23.9,66,29.86,10.0,SSW,9.2,-,N/A,,Overcast,210,2014-02-22 05:55:00
1:15 AM,33.8,23.7,67,29.85,4.0,SSW,11.5,-,N/A,,Haze,200,2014-02-22 06:15:00
1:35 AM,34.0,23.9,67,29.85,10.0,SSW,15.0,-,N/A,,Mostly Cloudy,200,2014-02-22 06:35:00
1:55 AM,34.7,23.9,65,29.85,5.0,SSW,16.1,-,N/A,,Haze,210,2014-02-22 06:55:00
2:15 AM,35.2,24.4,65,29.84,7.0,SW,16.1,-,N/A,,Clear,220,2014-02-22 07:15:00
2:35 AM,36.9,25.9,64,29.84,10.0,SW,18.4,-,N/A,,Clear,230,2014-02-22 07:35:00
2:55 AM,37.4,26.6,65,29.85,10.0,WSW,17.3,21.9,N/A,,Clear,240,2014-02-22 07:55:00
3:15 AM,37.2,26.8,66,29.86,7.0,WSW,17.3,24.2,N/A,,Clear,250,2014-02-22 08:15:00
3:35 AM,36.0,27.1,70,29.86,10.0,West,13.8,-,N/A,,Clear,260,2014-02-22 08:35:00
3:55 AM,35.2,27.3,73,29.87,7.0,West,15.0,-,N/A,,Clear,260,2014-02-22 08:55:00
4:15 AM,34.9,27.5,74,29.89,10.0,West,13.8,-,N/A,,Clear,260,2014-02-22 09:15:00
4:35 AM,33.8,27.5,78,29.90,10.0,West,9.2,-,N/A,,Clear,280,2014-02-22 09:35:00
4:55 AM,32.4,27.5,82,29.91,10.0,West,8.1,-,N/A,,Clear,260,2014-02-22 09:55:00
5:15 AM,32.2,27.1,82,29.93,10.0,West,9.2,-,N/A,,Clear,260,2014-02-22 10:15:00
5:35 AM,32.2,26.8,80,29.94,10.0,WSW,9.2,-,N/A,,Clear,250,2014-02-22 10:35:00
5:55 AM,32.0,26.6,80,29.95,10.0,WSW,9.2,-,N/A,,Clear,250,2014-02-22 10:55:00
6:15 AM,31.5,25.7,79,29.97,10.0,West,8.1,-,N/A,,Clear,260,2014-02-22 11:15:00
6:35 AM,31.1,25.5,80,29.98,10.0,West,8.1,-,N/A,,Clear,280,2014-02-22 11:35:00
6:55 AM,31.1,24.6,77,29.98,10.0,West,9.2,-,N/A,,Clear,270,2014-02-22 11:55:00
7:15 AM,30.7,24.4,77,29.99,10.0,West,8.1,-,N/A,,Clear,260,2014-02-22 12:15:00
7:35 AM,30.2,24.3,79,30.00,5.0,WSW,5.8,-,N/A,Snow,Light Snow,250,2014-02-22 12:35:00
7:55 AM,30.0,25.0,82,29.99,5.0,SW,6.9,-,N/A,,Haze,220,2014-02-22 12:55:00
8:15 AM,30.2,25.5,83,30.00,7.0,SW,6.9,-,N/A,,Clear,220,2014-02-22 13:15:00
8:35 AM,31.6,24.6,75,30.01,10.0,SW,6.9,-,N/A,,Clear,230,2014-02-22 13:35:00
8:55 AM,32.5,24.1,71,30.02,4.0,SW,5.8,-,N/A,,Haze,230,2014-02-22 13:55:00
9:15 AM,33.1,24.4,71,30.02,4.0,SW,8.1,-,N/A,,Haze,230,2014-02-22 14:15:00
9:35 AM,33.8,24.4,69,30.02,5.0,SW,8.1,-,N/A,Snow,Light Snow,230,2014-02-22 14:35:00
9:55 AM,34.3,24.4,67,30.03,7.0,SW,6.9,-,N/A,,Clear,230,2014-02-22 14:55:00
10:15 AM,34.7,24.4,66,30.04,5.0,WSW,6.9,-,N/A,,Haze,250,2014-02-22 15:15:00
10:35 AM,35.2,24.6,65,30.04,10.0,WSW,4.6,-,N/A,,Clear,250,2014-02-22 15:35:00
10:55 AM,35.6,25.7,67,30.05,10.0,West,6.9,-,N/A,,Clear,270,2014-02-22 15:55:00
11:15 AM,36.1,25.3,65,30.04,7.0,West,5.8,-,N/A,,Clear,270,2014-02-22 16:15:00
11:35 AM,36.7,25.3,64,30.05,7.0,West,9.2,-,N/A,,Clear,280,2014-02-22 16:35:00
11:55 AM,37.0,25.2,62,30.05,10.0,NW,6.9,-,N/A,,Clear,310,2014-02-22 16:55:00
12:15 PM,37.4,24.3,59,30.05,10.0,WNW,8.1,-,N/A,,Scattered Clouds,300,2014-02-22 17:15:00
12:35 PM,37.2,23.9,59,30.04,10.0,WNW,3.5,-,N/A,,Mostly Cloudy,300,2014-02-22 17:35:00
12:55 PM,37.4,24.1,59,30.02,5.0,NW,3.5,-,N/A,,Haze,320,2014-02-22 17:55:00
1:15 PM,37.4,24.1,59,30.02,10.0,NW,3.5,-,N/A,,Scattered Clouds,310,2014-02-22 18:15:00
1:35 PM,37.6,25.0,60,30.02,5.0,NW,6.9,-,N/A,,Haze,320,2014-02-22 18:35:00
1:55 PM,37.6,25.0,60,30.02,5.0,WNW,5.8,-,N/A,,Haze,290,2014-02-22 18:55:00
2:15 PM,37.4,24.3,59,30.01,10.0,WNW,4.6,-,N/A,,Overcast,290,2014-02-22 19:15:00
2:35 PM,37.6,24.6,60,30.01,5.0,Calm,Calm,-,N/A,,Haze,0,2014-02-22 19:35:00
2:55 PM,37.8,25.2,60,30.00,7.0,WNW,3.5,-,N/A,,Mostly Cloudy,300,2014-02-22 19:55:00
3:10 PM,37.9,24.8,59,30.01,7.0,NW,4.6,-,N/A,,Scattered Clouds,310,2014-02-22 20:10:00
3:35 PM,37.9,25.5,61,30.01,7.0,Calm,Calm,-,N/A,,Scattered Clouds,0,2014-02-22 20:35:00
3:55 PM,38.1,25.0,59,30.01,7.0,North,5.8,-,N/A,,Scattered Clouds,350,2014-02-22 20:55:00
4:15 PM,37.9,24.4,58,30.01,10.0,NNW,4.6,-,N/A,,Scattered Clouds,330,2014-02-22 21:15:00
4:35 PM,37.8,23.9,57,30.00,10.0,NNW,5.8,-,N/A,,Scattered Clouds,340,2014-02-22 21:35:00
4:55 PM,37.9,23.7,57,29.99,10.0,NNW,4.6,-,N/A,,Scattered Clouds,330,2014-02-22 21:55:00
5:15 PM,37.4,22.6,55,29.99,10.0,NNW,5.8,-,N/A,,Mostly Cloudy,330,2014-02-22 22:15:00
5:35 PM,37.2,22.1,54,29.99,10.0,NNW,5.8,-,N/A,,Overcast,340,2014-02-22 22:35:00
5:55 PM,36.7,22.6,57,29.99,10.0,North,4.6,-,N/A,,Overcast,350,2014-02-22 22:55:00
6:15 PM,36.1,23.4,60,29.99,7.0,North,4.6,-,N/A,,Overcast,350,2014-02-22 23:15:00
6:35 PM,35.8,23.9,62,30.00,4.0,NNW,5.8,-,N/A,,Haze,330,2014-02-22 23:35:00
6:55 PM,35.6,27.0,71,30.01,10.0,NW,3.5,-,N/A,,Overcast,320,2014-02-22 23:55:00
7:15 PM,34.7,29.1,80,30.02,10.0,Calm,Calm,-,N/A,,Overcast,0,2014-02-23 00:15:00
7:35 PM,34.2,29.5,83,30.02,7.0,North,8.1,-,N/A,,Overcast,360,2014-02-23 00:35:00
7:50 PM,33.6,30.0,87,30.02,10.0,NNW,8.1,-,N/A,,Overcast,340,2014-02-23 00:50:00
8:15 PM,33.8,31.3,90,30.01,5.0,NNW,9.2,16.1,N/A,Rain,Light Rain,330,2014-02-23 01:15:00
8:35 PM,34.2,32.0,92,30.01,5.0,NNW,10.4,18.4,N/A,Rain,Rain,340,2014-02-23 01:35:00
8:55 PM,34.0,32.0,92,30.01,7.0,NNW,8.1,-,N/A,Rain,Light Rain,330,2014-02-23 01:55:00
9:15 PM,34.0,32.0,92,30.02,10.0,NW,4.6,-,N/A,Rain,Light Rain,320,2014-02-23 02:15:00
9:35 PM,34.0,32.5,94,30.02,10.0,NNW,5.8,-,N/A,Rain,Light Rain,340,2014-02-23 02:35:00
9:55 PM,33.8,32.9,96,30.03,5.0,NW,5.8,-,N/A,Rain,Light Rain,320,2014-02-23 02:55:00
10:15 PM,33.8,33.3,98,30.04,10.0,NNW,6.9,-,N/A,Rain,Light Rain,330,2014-02-23 03:15:00
10:35 PM,33.8,33.3,98,30.03,7.0,NNW,8.1,-,N/A,Rain,Light Rain,340,2014-02-23 03:35:00
10:55 PM,33.1,32.9,99,30.03,7.0,North,8.1,-,N/A,Rain,Light Rain,350,2014-02-23 03:55:00
11:15 PM,32.5,32.5,100,30.03,4.0,North,8.1,-,N/A,Rain,Light Rain,350,2014-02-23 04:15:00
11:35 PM,32.2,32.2,100,30.03,3.0,NNW,5.8,-,N/A,Snow,Light Snow,340,2014-02-23 04:35:00
11:55 PM,32.0,32.0,100,30.03,2.5,North,6.9,-,N/A,Snow,Light Snow,350,2014-02-23 04:55:00